Time,TemperatureF,DewpointF,PressureIn,WindDirection,WindDirectionDegrees,WindSpeedMPH,WindSpeedGustMPH,Humidity,HourlyPrecipIn,Conditions,Clouds,dailyrainin,SoftwareType,DateUTC
2013-02-16 00:01:00,25.0,19.0,30.12,SW,226,0.0,2.0,78,0.00,,,0.01,,2013-02-16 05:01:00,
2013-02-16 00:12:00,25.0,19.0,30.12,SW,226,0.0,2.0,78,0.00,,,0.01,,2013-02-16 05:12:00,
2013-02-16 00:22:00,25.0,19.0,30.12,SW,226,0.0,1.0,77,0.00,,,0.01,,2013-02-16 05:22:00,
2013-02-16 00:32:00,25.0,19.0,30.11,SW,226,0.0,0.0,77,0.00,,,0.01,,2013-02-16 05:32:00,
2013-02-16 00:42:00,25.0,19.0,30.11,SW,226,0.0,0.0,77,0.00,,,0.01,,2013-02-16 05:42:00,
2013-02-16 00:52:00,24.0,18.0,30.11,SW,226,0.0,0.0,79,0.00,,,0.01,,2013-02-16 05:52:00,
2013-02-16 01:02:00,24.0,19.0,30.11,West,279,0.0,1.0,80,0.00,,,0.01,,2013-02-16 06:02:00,
2013-02-16 01:11:00,24.0,19.0,30.11,West,279,0.0,1.0,80,0.00,,,0.01,,2013-02-16 06:11:00,
2013-02-16 01:21:00,23.0,18.0,30.11,WNW,299,0.0,0.0,82,0.00,,,0.01,,2013-02-16 06:21:00,
2013-02-16 01:32:00,24.0,19.0,30.11,NW,315,0.0,2.0,80,0.00,,,0.01,,2013-02-16 06:32:00,
2013-02-16 01:42:00,24.0,19.0,30.11,NW,315,0.0,2.0,80,0.00,,,0.01,,2013-02-16 06:42:00,
2013-02-16 01:51:00,24.0,19.0,30.11,WNW,302,0.0,2.0,80,0.00,,,0.01,,2013-02-16 06:51:00,
2013-02-16 02:02:00,25.0,20.0,30.10,NNW,347,0.0,3.0,80,0.00,,,0.01,,2013-02-16 07:02:00,
2013-02-16 02:11:00,25.0,20.0,30.10,NNW,347,0.0,3.0,80,0.00,,,0.01,,2013-02-16 07:11:00,
2013-02-16 02:21:00,25.0,20.0,30.10,NW,324,0.0,7.0,80,0.00,,,0.01,,2013-02-16 07:21:00,
2013-02-16 02:31:00,25.0,20.0,30.10,WNW,300,1.0,4.0,80,0.00,,,0.01,,2013-02-16 07:31:00,
2013-02-16 02:42:00,25.0,20.0,30.10,WNW,300,1.0,4.0,80,0.00,,,0.01,,2013-02-16 07:42:00,
2013-02-16 02:52:00,25.0,20.0,30.09,WSW,242,2.0,7.0,81,0.00,,,0.01,,2013-02-16 07:52:00,
2013-02-16 03:01:00,25.0,20.0,30.09,NNW,329,1.0,7.0,82,0.00,,,0.01,,2013-02-16 08:01:00,
2013-02-16 03:11:00,25.0,20.0,30.09,NNW,329,1.0,7.0,82,0.00,,,0.01,,2013-02-16 08:11:00,
2013-02-16 03:21:00,25.0,20.0,30.09,NW,321,1.0,6.0,81,0.00,,,0.01,,2013-02-16 08:21:00,
2013-02-16 03:31:00,25.0,20.0,30.08,NW,321,0.0,3.0,81,0.00,,,0.01,,2013-02-16 08:31:00,
2013-02-16 03:42:00,25.0,20.0,30.08,NW,321,0.0,3.0,81,0.00,,,0.01,,2013-02-16 08:42:00,
2013-02-16 03:52:00,25.0,20.0,30.08,NNW,338,1.0,4.0,81,0.00,,,0.01,,2013-02-16 08:52:00,
2013-02-16 04:01:00,25.0,19.0,30.07,NW,316,1.0,4.0,79,0.00,,,0.01,,2013-02-16 09:01:00,
2013-02-16 04:11:00,25.0,19.0,30.07,NW,316,1.0,4.0,79,0.00,,,0.01,,2013-02-16 09:11:00,
2013-02-16 04:21:00,25.0,20.0,30.07,West,275,0.0,4.0,80,0.00,,,0.01,,2013-02-16 09:21:00,
2013-02-16 04:31:00,24.0,18.0,30.07,NW,325,1.0,6.0,79,0.00,,,0.01,,2013-02-16 09:31:00,
2013-02-16 04:42:00,24.0,18.0,30.07,NW,325,1.0,6.0,79,0.00,,,0.01,,2013-02-16 09:42:00,
2013-02-16 04:51:00,24.0,18.0,30.06,WNW,290,2.0,5.0,77,0.00,,,0.01,,2013-02-16 09:51:00,
2013-02-16 05:01:00,24.0,18.0,30.06,NW,311,0.0,5.0,77,0.00,,,0.01,,2013-02-16 10:01:00,
2013-02-16 05:11:00,24.0,18.0,30.06,NW,311,0.0,5.0,77,0.00,,,0.01,,2013-02-16 10:11:00,
2013-02-16 05:21:00,24.0,18.0,30.06,NW,309,1.0,5.0,77,0.00,,,0.01,,2013-02-16 10:21:00,
2013-02-16 05:31:00,24.0,18.0,30.06,NE,43,0.0,7.0,77,0.00,,,0.01,,2013-02-16 10:31:00,
2013-02-16 05:42:00,24.0,18.0,30.06,NE,43,0.0,7.0,77,0.00,,,0.01,,2013-02-16 10:42:00,
2013-02-16 05:51:00,23.0,19.0,30.07,NNW,341,1.0,6.0,86,0.00,,,0.01,,2013-02-16 10:51:00,
2013-02-16 06:02:00,23.0,20.0,30.07,NNW,329,2.0,7.0,87,0.00,,,0.01,,2013-02-16 11:02:00,
2013-02-16 06:11:00,23.0,20.0,30.07,NNW,329,2.0,7.0,87,0.00,,,0.01,,2013-02-16 11:11:00,
2013-02-16 06:22:00,23.0,20.0,30.06,NNW,333,0.0,4.0,89,0.00,,,0.01,,2013-02-16 11:22:00,
2013-02-16 06:32:00,23.0,20.0,30.06,NNW,329,1.0,5.0,89,0.00,,,0.01,,2013-02-16 11:32:00,
2013-02-16 06:42:00,23.0,20.0,30.06,NNW,329,1.0,5.0,89,0.00,,,0.01,,2013-02-16 11:42:00,
2013-02-16 06:52:00,22.0,19.0,30.06,North,10,0.0,7.0,87,0.00,,,0.01,,2013-02-16 11:52:00,
2013-02-16 07:01:00,22.0,19.0,30.06,North,10,0.0,7.0,87,0.00,,,0.01,,2013-02-16 12:01:00,
2013-02-16 07:12:00,22.0,19.0,30.06,North,10,0.0,7.0,87,0.00,,,0.01,,2013-02-16 12:12:00,
2013-02-16 07:22:00,21.0,17.0,30.06,NNW,338,1.0,5.0,83,0.00,,,0.01,,2013-02-16 12:22:00,
2013-02-16 07:32:00,21.0,17.0,30.06,NNW,336,0.0,4.0,83,0.00,,,0.01,,2013-02-16 12:32:00,
2013-02-16 07:42:00,21.0,17.0,30.06,NNW,336,0.0,4.0,83,0.00,,,0.01,,2013-02-16 12:42:00,
2013-02-16 07:52:00,20.0,16.0,30.07,NNW,347,2.0,6.0,83,0.00,,,0.01,,2013-02-16 12:52:00,
2013-02-16 08:02:00,20.0,15.0,30.07,NNW,345,1.0,6.0,82,0.00,,,0.01,,2013-02-16 13:02:00,
2013-02-16 08:12:00,20.0,15.0,30.07,NNW,345,1.0,6.0,82,0.00,,,0.01,,2013-02-16 13:12:00,
2013-02-16 08:21:00,20.0,15.0,30.07,NW,323,0.0,5.0,82,0.00,,,0.01,,2013-02-16 13:21:00,
2013-02-16 08:31:00,20.0,16.0,30.07,NNW,333,1.0,5.0,83,0.00,,,0.01,,2013-02-16 13:31:00,
2013-02-16 08:41:00,20.0,16.0,30.07,NNW,333,1.0,5.0,83,0.00,,,0.01,,2013-02-16 13:41:00,
2013-02-16 08:51:00,20.0,15.0,30.07,WNW,294,1.0,7.0,82,0.00,,,0.01,,2013-02-16 13:51:00,
2013-02-16 09:01:00,21.0,16.0,30.08,NW,319,2.0,9.0,80,0.00,,,0.01,,2013-02-16 14:01:00,
2013-02-16 09:11:00,21.0,16.0,30.08,NW,319,2.0,9.0,80,0.00,,,0.01,,2013-02-16 14:11:00,
2013-02-16 09:21:00,22.0,16.0,30.08,NNE,12,2.0,10.0,79,0.00,,,0.01,,2013-02-16 14:21:00,
2013-02-16 09:32:00,22.0,16.0,30.08,NW,324,4.0,9.0,76,0.00,,,0.01,,2013-02-16 14:32:00,
2013-02-16 09:41:00,22.0,16.0,30.08,NW,324,4.0,9.0,76,0.00,,,0.01,,2013-02-16 14:41:00,
2013-02-16 09:52:00,23.0,16.0,30.08,ESE,109,2.0,9.0,74,0.00,,,0.01,,2013-02-16 14:52:00,
2013-02-16 10:01:00,23.0,17.0,30.08,East,84,2.0,6.0,76,0.00,,,0.01,,2013-02-16 15:01:00,
2013-02-16 10:11:00,23.0,17.0,30.08,East,84,2.0,6.0,76,0.00,,,0.01,,2013-02-16 15:11:00,
2013-02-16 10:21:00,24.0,17.0,30.09,North,11,2.0,9.0,74,0.00,,,0.01,,2013-02-16 15:21:00,
2013-02-16 10:32:00,23.0,16.0,30.08,North,355,3.0,8.0,74,0.00,,,0.01,,2013-02-16 15:32:00,
2013-02-16 10:42:00,23.0,16.0,30.08,North,355,3.0,8.0,74,0.00,,,0.01,,2013-02-16 15:42:00,
2013-02-16 10:51:00,24.0,18.0,30.09,West,265,1.0,11.0,76,0.00,,,0.01,,2013-02-16 15:51:00,
2013-02-16 11:01:00,23.0,17.0,30.09,WNW,299,2.0,8.0,79,0.00,,,0.01,,2013-02-16 16:01:00,
2013-02-16 11:11:00,23.0,17.0,30.09,WNW,299,2.0,8.0,79,0.00,,,0.01,,2013-02-16 16:11:00,
2013-02-16 11:21:00,23.0,17.0,30.09,WNW,299,2.0,8.0,79,0.00,,,0.01,,2013-02-16 16:21:00,
2013-02-16 11:32:00,22.0,16.0,30.09,ESE,114,2.0,9.0,77,0.00,,,0.01,,2013-02-16 16:32:00,
2013-02-16 11:42:00,22.0,16.0,30.09,ESE,114,2.0,9.0,77,0.00,,,0.01,,2013-02-16 16:42:00,
2013-02-16 11:52:00,24.0,17.0,30.09,NW,306,2.0,6.0,75,0.00,,,0.01,,2013-02-16 16:52:00,
2013-02-16 12:01:00,24.0,17.0,30.09,NNE,21,3.0,11.0,75,0.00,,,0.01,,2013-02-16 17:01:00,
2013-02-16 12:11:00,24.0,17.0,30.09,NNE,21,3.0,11.0,75,0.00,,,0.01,,2013-02-16 17:11:00,
2013-02-16 12:22:00,23.0,16.0,30.09,West,281,2.0,9.0,75,0.00,,,0.01,,2013-02-16 17:22:00,
2013-02-16 12:32:00,23.0,17.0,30.09,WNW,286,3.0,11.0,77,0.00,,,0.01,,2013-02-16 17:32:00,
2013-02-16 12:42:00,23.0,17.0,30.09,WNW,286,3.0,11.0,77,0.00,,,0.01,,2013-02-16 17:42:00,
2013-02-16 12:52:00,24.0,18.0,30.09,ENE,58,4.0,10.0,78,0.00,,,0.01,,2013-02-16 17:52:00,
2013-02-16 13:02:00,23.0,17.0,30.09,North,355,3.0,8.0,78,0.00,,,0.01,,2013-02-16 18:02:00,
2013-02-16 13:11:00,24.0,18.0,30.08,NW,325,2.0,6.0,76,0.00,,,0.00,,2013-02-16 18:11:00,
2013-02-16 13:21:00,24.0,18.0,30.08,NW,325,2.0,6.0,76,0.00,,,0.00,,2013-02-16 18:21:00,
2013-02-16 13:33:00,23.0,15.0,30.08,ENE,58,4.0,8.0,71,0.00,,,0.00,,2013-02-16 18:33:00,
2013-02-16 13:42:00,23.0,15.0,30.08,ENE,58,4.0,8.0,71,0.00,,,0.00,,2013-02-16 18:42:00,
2013-02-16 13:51:00,23.0,15.0,30.08,ENE,58,4.0,8.0,71,0.00,,,0.00,,2013-02-16 18:51:00,
2013-02-16 14:02:00,21.0,13.0,30.08,ESE,105,4.0,11.0,70,0.00,,,0.00,,2013-02-16 19:02:00,
2013-02-16 14:11:00,21.0,13.0,30.08,ESE,105,4.0,11.0,70,0.00,,,0.00,,2013-02-16 19:11:00,
2013-02-16 14:21:00,22.0,12.0,30.08,ENE,70,2.0,8.0,66,0.00,,,0.00,,2013-02-16 19:21:00,
2013-02-16 14:31:00,22.0,12.0,30.08,West,281,2.0,7.0,66,0.00,,,0.00,,2013-02-16 19:31:00,
2013-02-16 14:42:00,22.0,12.0,30.08,West,281,2.0,7.0,66,0.00,,,0.00,,2013-02-16 19:42:00,
2013-02-16 14:52:00,22.0,11.0,30.08,ESE,113,3.0,7.0,61,0.00,,,0.00,,2013-02-16 19:52:00,
2013-02-16 15:01:00,22.0,11.0,30.08,NNE,28,2.0,7.0,61,0.00,,,0.00,,2013-02-16 20:01:00,
2013-02-16 15:11:00,22.0,13.0,30.08,West,278,3.0,10.0,68,0.00,,,0.00,,2013-02-16 20:11:00,
2013-02-16 15:21:00,22.0,13.0,30.08,West,278,3.0,10.0,68,0.00,,,0.00,,2013-02-16 20:21:00,
2013-02-16 15:32:00,21.0,12.0,30.09,North,5,2.0,9.0,69,0.00,,,0.00,,2013-02-16 20:32:00,
2013-02-16 15:42:00,21.0,12.0,30.09,North,5,2.0,9.0,69,0.00,,,0.00,,2013-02-16 20:42:00,
2013-02-16 15:52:00,20.0,14.0,30.09,NE,36,2.0,10.0,78,0.00,,,0.00,,2013-02-16 20:52:00,
2013-02-16 16:02:00,21.0,13.0,30.09,NW,304,1.0,9.0,71,0.00,,,0.00,,2013-02-16 21:02:00,
2013-02-16 16:11:00,21.0,13.0,30.09,NW,304,1.0,9.0,71,0.00,,,0.00,,2013-02-16 21:11:00,
2013-02-16 16:21:00,21.0,13.0,30.09,ENE,63,1.0,9.0,72,0.00,,,0.00,,2013-02-16 21:21:00,
2013-02-16 16:32:00,21.0,15.0,30.09,NW,317,4.0,12.0,77,0.00,,,0.00,,2013-02-16 21:32:00,
2013-02-16 16:42:00,21.0,15.0,30.09,NW,317,4.0,12.0,77,0.00,,,0.00,,2013-02-16 21:42:00,
2013-02-16 16:52:00,21.0,13.0,30.09,NNE,25,2.0,12.0,71,0.00,,,0.00,,2013-02-16 21:52:00,
2013-02-16 17:01:00,20.0,12.0,30.10,ENE,72,1.0,5.0,72,0.00,,,0.00,,2013-02-16 22:01:00,
2013-02-16 17:11:00,20.0,12.0,30.10,ENE,72,1.0,5.0,72,0.00,,,0.00,,2013-02-16 22:11:00,
2013-02-16 17:21:00,20.0,14.0,30.10,NE,46,1.0,7.0,77,0.00,,,0.00,,2013-02-16 22:21:00,
2013-02-16 17:32:00,19.0,13.0,30.10,NE,36,2.0,6.0,78,0.00,,,0.00,,2013-02-16 22:32:00,
2013-02-16 17:42:00,19.0,13.0,30.10,NE,36,2.0,6.0,78,0.00,,,0.00,,2013-02-16 22:42:00,
2013-02-16 17:51:00,19.0,13.0,30.10,NE,36,2.0,6.0,78,0.00,,,0.00,,2013-02-16 22:51:00,
2013-02-16 18:02:00,19.0,14.0,30.10,NW,325,0.0,3.0,79,0.00,,,0.00,,2013-02-16 23:02:00,
2013-02-16 18:11:00,19.0,14.0,30.10,NW,325,0.0,3.0,79,0.00,,,0.00,,2013-02-16 23:11:00,
2013-02-16 18:21:00,18.0,13.0,30.10,North,355,0.0,3.0,81,0.00,,,0.00,,2013-02-16 23:21:00,
2013-02-16 18:31:00,18.0,13.0,30.11,North,349,0.0,3.0,81,0.00,,,0.00,,2013-02-16 23:31:00,
2013-02-16 18:42:00,18.0,13.0,30.11,North,349,0.0,3.0,81,0.00,,,0.00,,2013-02-16 23:42:00,
2013-02-16 18:52:00,18.0,14.0,30.11,NNE,17,0.0,2.0,84,0.00,,,0.00,,2013-02-16 23:52:00,
2013-02-16 19:02:00,18.0,14.0,30.11,NNE,29,0.0,3.0,84,0.00,,,0.00,,2013-02-17 00:02:00,
2013-02-16 19:12:00,18.0,14.0,30.11,NNE,29,0.0,3.0,84,0.00,,,0.00,,2013-02-17 00:12:00,
2013-02-16 19:22:00,18.0,14.0,30.12,North,11,0.0,4.0,84,0.00,,,0.00,,2013-02-17 00:22:00,
2013-02-16 19:32:00,17.0,13.0,30.12,North,5,0.0,3.0,85,0.00,,,0.00,,2013-02-17 00:32:00,
2013-02-16 19:41:00,17.0,13.0,30.12,North,5,0.0,3.0,85,0.00,,,0.00,,2013-02-17 00:41:00,
2013-02-16 19:51:00,17.0,13.0,30.12,North,5,0.0,3.0,85,0.00,,,0.00,,2013-02-17 00:51:00,
2013-02-16 20:01:00,17.0,13.0,30.13,NNE,22,0.0,3.0,85,0.00,,,0.00,,2013-02-17 01:01:00,
2013-02-16 20:11:00,17.0,13.0,30.13,NNE,22,0.0,3.0,85,0.00,,,0.00,,2013-02-17 01:11:00,
2013-02-16 20:21:00,17.0,13.0,30.13,North,360,0.0,4.0,85,0.00,,,0.00,,2013-02-17 01:21:00,
2013-02-16 20:31:00,16.0,13.0,30.13,WNW,285,1.0,4.0,86,0.00,,,0.00,,2013-02-17 01:31:00,
2013-02-16 20:41:00,16.0,13.0,30.13,WNW,285,1.0,4.0,86,0.00,,,0.00,,2013-02-17 01:41:00,
2013-02-16 20:52:00,16.0,12.0,30.12,NW,319,0.0,4.0,85,0.00,,,0.00,,2013-02-17 01:52:00,
2013-02-16 21:01:00,16.0,12.0,30.12,NW,319,0.0,4.0,85,0.00,,,0.00,,2013-02-17 02:01:00,
2013-02-16 21:11:00,16.0,12.0,30.12,NW,319,0.0,4.0,85,0.00,,,0.00,,2013-02-17 02:11:00,
2013-02-16 21:21:00,16.0,13.0,30.12,WNW,301,0.0,3.0,86,0.00,,,0.00,,2013-02-17 02:21:00,
2013-02-16 21:31:00,15.0,12.0,30.12,WNW,302,0.0,4.0,86,0.00,,,0.00,,2013-02-17 02:31:00,
2013-02-16 21:41:00,15.0,12.0,30.12,WNW,302,0.0,4.0,86,0.00,,,0.00,,2013-02-17 02:41:00,
2013-02-16 21:52:00,15.0,11.0,30.12,NW,323,1.0,5.0,85,0.00,,,0.00,,2013-02-17 02:52:00,
2013-02-16 22:02:00,15.0,11.0,30.12,NW,310,0.0,3.0,85,0.00,,,0.00,,2013-02-17 03:02:00,
2013-02-16 22:11:00,15.0,11.0,30.12,NW,310,0.0,3.0,85,0.00,,,0.00,,2013-02-17 03:11:00,
2013-02-16 22:21:00,15.0,11.0,30.12,North,11,1.0,4.0,85,0.00,,,0.00,,2013-02-17 03:21:00,
2013-02-16 22:31:00,15.0,11.0,30.13,WNW,293,1.0,4.0,84,0.00,,,0.00,,2013-02-17 03:31:00,
2013-02-16 22:42:00,15.0,11.0,30.13,WNW,293,1.0,4.0,84,0.00,,,0.00,,2013-02-17 03:42:00,
2013-02-16 22:51:00,15.0,11.0,30.13,WNW,293,1.0,4.0,84,0.00,,,0.00,,2013-02-17 03:51:00,
2013-02-16 23:01:00,15.0,11.0,30.13,NNW,341,0.0,3.0,82,0.00,,,0.00,,2013-02-17 04:01:00,
2013-02-16 23:11:00,15.0,11.0,30.13,NNW,341,0.0,3.0,82,0.00,,,0.00,,2013-02-17 04:11:00,
2013-02-16 23:21:00,15.0,11.0,30.12,NNW,333,1.0,4.0,82,0.00,,,0.00,,2013-02-17 04:21:00,
2013-02-16 23:31:00,15.0,11.0,30.12,NW,320,0.0,4.0,82,0.00,,,0.00,,2013-02-17 04:31:00,
2013-02-16 23:41:00,15.0,11.0,30.12,NW,320,0.0,4.0,82,0.00,,,0.00,,2013-02-17 04:41:00,
2013-02-16 23:51:00,15.0,11.0,30.12,NW,320,0.0,4.0,82,0.00,,,0.00,,2013-02-17 04:51:00,